Weather History for Dansville, NY

Change the Weather History Date:

Saturday, October 19, 2013

  Actual Average Record
Temperature  
Mean Temperature 54 °F -  
Max Temperature 63 °F 57 °F 85 °F (1963)
Min Temperature 46 °F 36 °F 16 °F (1974)
Degree Days  
Heating Degree Days 10    
Growing Degree Days 4 (Base 50)    
Moisture  
Dew Point 42 °F    
Average Humidity 67    
Maximum Humidity 83    
Minimum Humidity 44    
Precipitation  
Precipitation 0.05 in - - ()
Sea Level Pressure  
Sea Level Pressure 29.83 in    
Wind  
Wind Speed 5 mph (SSE)    
Max Wind Speed 14 mph    
Max Gust Speed 24 mph    
Visibility 10 miles    
Events Rain    
Averages and records for this station are not official NWS values.
T = Trace of Precipitation, MM = Missing Value Source: NWS Daily Summary

Daily Weather History Graph

Daily Weather History Graph

Search for Another Location

Airport:

Trip Planner

Search our weather history database for the weather conditions in past years. The results will help you decide how hot, cold, wet, or windy it might be!

Date:

Astronomy

Oct. 19, 2013 Rise Set
Actual Time 7:28 AM EDT 6:21 PM EDT
Civil Twilight 7:00 AM EDT 6:50 PM EDT
Nautical Twilight 6:27 AM EDT 7:23 PM EDT
Astronomical Twilight 5:54 AM EDT 7:55 PM EDT
Moon 6:46 PM EDT (10/19) 8:05 AM EDT (10/19)
Length of Visible Light 11h 50m
Length of Day
10h 53m
Waxing Gibbous, 99% of the Moon is Illuminated
Oct 19
Waxing Gibbous
Oct 26
Last Quarter
Nov 3
New
Nov 10
First Quarter
Nov 17
Full

Hourly Weather History & Observations

Time (EDT) Temp. Dew Point Humidity Pressure Visibility Wind Dir Wind Speed Gust Speed Precip Events Conditions
12:54 AM 48.0 °F 39.9 °F 74% 29.96 in 10.0 mi Calm Calm - N/A   Scattered Clouds
1:54 AM 48.0 °F 39.9 °F 74% 29.96 in 10.0 mi ESE 4.6 mph - N/A   Mostly Cloudy
2:54 AM 50.0 °F 41.0 °F 71% 29.95 in 10.0 mi ESE 6.9 mph - N/A   Overcast
3:54 AM 50.0 °F 41.0 °F 71% 29.94 in 10.0 mi ESE 6.9 mph - N/A   Overcast
4:54 AM 48.9 °F 41.0 °F 74% 29.94 in 10.0 mi SE 3.5 mph - N/A   Overcast
5:54 AM 50.0 °F 41.0 °F 71% 29.93 in 10.0 mi SE 8.1 mph - N/A   Clear
6:54 AM 48.9 °F 41.0 °F 74% 29.92 in 10.0 mi SE 6.9 mph - N/A   Clear
7:54 AM 46.9 °F 41.0 °F 80% 29.91 in 10.0 mi SSE 3.5 mph - N/A   Clear
8:54 AM 53.1 °F 42.1 °F 66% 29.91 in 10.0 mi ESE 6.9 mph - N/A   Clear
9:54 AM 55.0 °F 42.1 °F 62% 29.90 in 10.0 mi SSE 9.2 mph - N/A   Partly Cloudy
10:54 AM 59.0 °F 43.0 °F 55% 29.87 in 10.0 mi SSE 9.2 mph - N/A   Clear
11:54 AM 61.0 °F 41.0 °F 48% 29.86 in 10.0 mi South 10.4 mph 16.1 mph N/A   Overcast
12:54 PM 62.1 °F 39.9 °F 44% 29.81 in 10.0 mi South 10.4 mph - N/A   Partly Cloudy
1:54 PM 61.0 °F 41.0 °F 48% 29.78 in 10.0 mi SSE 9.2 mph - N/A   Mostly Cloudy
2:54 PM 62.1 °F 41.0 °F 46% 29.74 in 10.0 mi SSE 10.4 mph - N/A   Mostly Cloudy
3:54 PM 63.0 °F 43.0 °F 48% 29.70 in 10.0 mi SSE 13.8 mph 24.2 mph N/A   Scattered Clouds
4:54 PM 61.0 °F 39.9 °F 46% 29.70 in 10.0 mi South 10.4 mph 19.6 mph N/A   Overcast
5:54 PM 55.9 °F 42.1 °F 60% 29.72 in 9.0 mi Variable 5.8 mph - 0.00 in Rain Light Rain
6:54 PM 52.0 °F 43.0 °F 71% 29.72 in 10.0 mi SSE 4.6 mph - 0.01 in Rain Light Rain
7:54 PM 51.1 °F 46.0 °F 83% 29.71 in 10.0 mi SSE 5.8 mph - 0.01 in   Overcast
8:54 PM 50.0 °F 44.1 °F 80% 29.75 in 7.0 mi West 10.4 mph - 0.02 in Rain Light Rain
9:45 PM 48.2 °F 42.8 °F 82% 29.75 in 10.0 mi Calm Calm - 0.01 in   Overcast
9:54 PM 48.9 °F 42.1 °F 77% 29.79 in 10.0 mi Calm Calm - 0.01 in   Overcast
10:28 PM 48.2 °F 41.0 °F 76% 29.77 in 10.0 mi Variable 4.6 mph - N/A   Overcast
10:54 PM 48.9 °F 41.0 °F 74% 29.81 in 10.0 mi Calm Calm - N/A   Overcast
11:54 PM 46.0 °F 39.9 °F 79% 29.83 in 10.0 mi Calm Calm - N/A   Mostly Cloudy